Tracking 27107 objects as of 20-Mar-2023
HD Live streaming from Space Station
objects crossing your sky now

ARIANE 1 R/B

Track ARIANE 1 R/B now!
10-day predictions


NORAD ID: 16615
Int'l Code: 1986-019C
Perigee: 784.1 km
Apogee: 799.5 km
Inclination: 98.3 °
Period: 100.6 minutes
Semi major axis: 7162 km
RCS: 7.0687 m2 (large)
Launch date: February 22, 1986
Source: France (FR)
Launch site: FRENCH GUIANA (FRGUI)

Note: This is a ROCKET BODY
Your satellite tracking list
Your tracking list is empty




NASA's NSSDC Master Catalog

Two Line Element Set (TLE):
1 16615U 86019C   23079.13194274  .00000427  00000-0  17442-3 0  9999
2 16615  98.3387 129.7460 0010748 315.3948 102.4757 14.32117571940204
Source of the keplerian elements: AFSPC